Regional Weather Roundup
Issued by NWS

Home | Current Version | Previous Version | Graphics & Text | Print | Product List | Glossary Off
Versions: 1 2 3 4 5 6 7 8 9 10 11 12 13 14 15 16 17 18 19 20 21 22 23 24 25 26 27 28 29 30 31 32 33 34 35 36 37 38 39 40 41 42 43 44 45 46 47 48 49 50

000
ASUS43 KMKX 232120
RWRWI

WISCONSIN REGIONAL WEATHER ROUNDUP
NATIONAL WEATHER SERVICE MILWAUKEE/SULLIVAN WI
400 PM CDT WED JUL 23 2014

NOTE: "FAIR" INDICATES FEW OR NO CLOUDS BELOW 12,000 FEET WITH NO
SIGNIFICANT WEATHER AND/OR OBSTRUCTIONS TO VISIBILITY.

WIZ001-002-006>008-014>016-023>028-232200-
NORTHWEST WISCONSIN

CITY           SKY/WX    TMP DP  RH WIND       PRES   REMARKS
SUPERIOR ARPT  MOSUNNY   74  59  59 NE8       30.21F
ASHLAND        SUNNY     73  54  51 NE7       30.23F
HAYWARD        MOSUNNY   74  52  46 N7        30.23S
SIREN          SUNNY     78  50  38 NE5       30.21F
RICE LAKE      CLOUDY    77  52  41 N8        30.22F
LADYSMITH      SUNNY     76  55  47 N9        30.22F
EAU CLAIRE     PTSUNNY   79  53  40 N3        30.18F
MENOMONIE      MOCLDY    80  51  35 N6        30.19F HX  80
NEW RICHMOND   MOSUNNY   78  52  39 N7        30.21F
OSCEOLA        MOSUNNY   78  56  46 N5        30.23F
$$

WIZ003>005-009-010-017-018-232200-
NORTH CENTRAL WISCONSIN

CITY           SKY/WX    TMP DP  RH WIND       PRES   REMARKS
WOODRUFF       MOSUNNY   77  55  45 N7        30.22F
RHINELANDER    MOSUNNY   71  52  50 N9        30.22F
EAGLE RIVER    PTSUNNY   71  47  42 NE8       30.21F
LAND O LAKES   PTSUNNY   71  48  43 NE10      30.23F
PHILLIPS       MOSUNNY   73  53  49 NW6       30.21S
TOMAHAWK       PTSUNNY   70  53  55 CALM      30.21F
MEDFORD        MOSUNNY   74  54  50 N5        30.21S
MERRILL        PTSUNNY   73  55  51 NE5       30.20S
$$

WIZ029-030-035-036-043>047-232200-
CENTRAL WISCONSIN

CITY           SKY/WX    TMP DP  RH WIND       PRES   REMARKS
WAUSAU         PTSUNNY   75  52  44 NE6       30.18F
MOSINEE        PTSUNNY   73  54  49 N8        30.21F
MARSHFIELD     PTSUNNY   77  53  43 N10       30.19F
STEVENS POINT  MOSUNNY   73  51  45 NE10      30.19F
WAUPACA        MOSUNNY   78  49  35 N8        30.18F
WAUTOMA        CLOUDY    78  53  41 N10       30.18F
WISC RAPIDS    MOSUNNY   79  54  41 N10       30.20F
CAMP DOUGLAS   MOSUNNY   79  57  47 VRB6      30.18F HX  80
$$

WIZ011>013-019>022-031-037>040-048>050-232200-
NORTHEAST WISCONSIN

CITY           SKY/WX    TMP DP  RH WIND       PRES   REMARKS
ANTIGO         MOSUNNY   71  50  46 N8        30.21F
STURGEON BAY   MOSUNNY   72  46  40 N13       30.19S
GREEN BAY      PTSUNNY   71  53  52 NE14      30.19F
MANITOWOC      MOSUNNY   67  52  58 E10       30.19S
APPLETON       PTSUNNY   73  48  40 N14       30.19F
CLINTONVILLE   CLOUDY    77  46  33 NE13      30.18F
OSHKOSH        PTSUNNY   75  52  44 N13       30.17F
$$

WIZ032>034-041-042-053>061-232200-
SOUTHWEST WISCONSIN

CITY           SKY/WX    TMP DP  RH WIND       PRES   REMARKS
LA CROSSE      MOSUNNY   81  54  39 W8        30.18F HX  81
SPARTA         PTSUNNY   81  51  35 NW6       30.18F HX  80
VIROQUA        FAIR      78  55  45 N7        30.20F
BOSCOBEL       PTSUNNY   79  54  41 N7        30.18F
PRAIRIE DU CHI MOSUNNY   79  51  38 N9        30.18S
PLATTEVILLE    FAIR      78  54  43 NW10      30.19F
$$

WIZ056-057-062-063-064-067-068-232200-
SOUTH CENTRAL WISCONSIN

CITY           SKY/WX    TMP DP  RH WIND       PRES   REMARKS
BARABOO/DELLS  PTSUNNY   79  50  35 N6        30.17F
LONE ROCK      PTSUNNY   81  57  43 N9        30.17F HX  81
WATERTOWN      PTSUNNY   74  54  48 NE13      30.16S
MADISON        PTSUNNY   76  55  48 NE10      30.17F
MIDDLETON      MOCLDY    79  52  38 N8        30.17F
MONROE         PTSUNNY   75  54  46 N12       30.16F
JANESVILLE     MOSUNNY   79  48  34 N12G18    30.15F
$$

WIZ051-052-058>065-066-070>072-232200-
SOUTHEAST WISCONSIN

CITY           SKY/WX    TMP DP  RH WIND       PRES   REMARKS
MILWAUKEE      MOSUNNY   64  54  69 NE14G23   30.18F
WAUKESHA       MOSUNNY   70  54  56 NE14      30.18F
MILWAUKEE/TIMM SUNNY     66  50  55 NE13G18   30.19F
RACINE         SUNNY     66  55  67 NE16G22   30.18F
BURLINGTON     PTSUNNY   70  55  58 NE8       30.15F
KENOSHA        SUNNY     69  55  60 NE13G22   30.16F
FOND DU LAC    PTSUNNY   76  52  43 NE14      30.18F
SHEBOYGAN      MOSUNNY   67  52  58 NE14G22   30.19F
WEST BEND      PTSUNNY   66  54  63 E8        30.18S
JUNEAU         MOSUNNY   73  46  38 N13       30.18F
$$

LSZ147-162-232200-
LAKE SUPERIOR

STATION/POSITION TIME  TEMP    WIND        PRES    WAVE
                       AIR SEA DIR/SP/G            HT/PER
                 (UTC) (F)     (DEG/KT/KT) (MB)    (FT/S)
$$

LMZ867-665-643>646-232200-
LAKE MICHIGAN

STATION/POSITION TIME  TEMP    WIND        PRES    WAVE
                       AIR SEA DIR/SP/G            HT/PER
                 (UTC) (F)     (DEG/KT/KT) (MB)    (FT/S)
$$

TC  - TEMPERATURE IN CELSIUS
VSB - VISIBILITY IN STATUTE MILES
WCI - WIND CHILL INDEX
HX  - HEAT INDEX




USA.gov is the U.S. government's official web portal to all federal, state and local government web resources and services.